Location: Walton
(43.6794°N, 81.3017°W)
Time: 00:26:07
(UTC+00:00)

Cosmos 2180 Rocket - Pass Details

Date: 11 March 2026
Orbit: 952 x 1004 km, 82.9° (Epoch: 14 April)

Event Time Altitude Azimuth Distance (km) Brightness Sun altitude
Rises 00:58:50 0° 335° (NNW) 3,641 8.0 -17.6°
Reaches altitude 10° 01:02:20 10° 316° (NW) 2,687 7.6 -18.2°
Maximum altitude 01:05:52 16° 280° (W) 2,267 7.5 -18.9°
Drops below altitude 10° 01:09:23 10° 244° (WSW) 2,677 7.5 -19.5°
Sets 01:12:53 0° 224° (SW) 3,621 7.9 -20.1°
